Weather History for Boulder City, NV

Change the Weather History Date:

Saturday, January 26, 2013

  Actual Average (KLAS) Record (KLAS)
Temperature  
Mean Temperature 54 °F 50 °F  
Max Temperature 57 °F 59 °F 77 °F (1975)
Min Temperature 50 °F 40 °F 10 °F (1937)
Degree Days  
Heating Degree Days 12 15  
Month to date heating degree days 430  
Since 1 July heating degree days 1277  
Cooling Degree Days 0 0  
Month to date cooling degree days 0  
Year to date cooling degree days 0  
Growing Degree Days 4 (Base 50)    
Moisture  
Dew Point 51 °F    
Average Humidity 95    
Maximum Humidity 100    
Minimum Humidity 77    
Precipitation  
Precipitation 0.32 in 0.02 in 0.42 in (1958)
Month to date precipitation 0.45  
Year to date precipitation 0.45  
Snow  
Snow 0.00 in 0.00 in T in (1949)
Month to date snowfall 0.0  
Since 1 July snowfall 0.2  
Snow Depth -    
Sea Level Pressure  
Sea Level Pressure 29.92 in    
Wind  
Wind Speed 3 mph (NW)    
Max Wind Speed 8 mph    
Max Gust Speed -    
Visibility 8 miles    
Events Fog    
T = Trace of Precipitation, MM = Missing Value Source: NWS Daily Summary

Daily Weather History Graph

Daily Weather History Graph

Search for Another Location

Airport:

Trip Planner

Search our weather history database for the weather conditions in past years. The results will help you decide how hot, cold, wet, or windy it might be!

Date:

Astronomy

Jan. 26, 2013 Rise Set
Actual Time 6:43 AM PST 5:00 PM PST
Civil Twilight 6:16 AM PST 5:27 PM PST
Nautical Twilight 5:45 AM PST 5:58 PM PST
Astronomical Twilight 5:15 AM PST 6:29 PM PST
Moon 4:57 PM PST (1/26) 6:05 AM PST (1/26)
Length of Visible Light 11h 11m
Length of Day
10h 16m
Full, 100% of the Moon is Illuminated
Jan 26
Full
Jan 26
Full
Feb 3
Last Quarter
Feb 9
New
Feb 17
First Quarter

Hourly Weather History & Observations

Time (PST) Temp. Dew Point Humidity Pressure Visibility Wind Dir Wind Speed Gust Speed Precip Events Conditions
12:15 AM 51.8 °F 48.2 °F 88% 30.02 in 10.0 mi WNW 3.5 mph - N/A   Unknown
12:35 AM 51.8 °F 48.2 °F 88% 30.01 in 10.0 mi Calm Calm - 0.01 in   Unknown
12:55 AM 51.8 °F 50.0 °F 94% 30.00 in 8.0 mi NW 3.5 mph - 0.02 in   Unknown
1:15 AM 51.8 °F 50.0 °F 94% 30.00 in 5.0 mi WNW 4.6 mph - 0.02 in   Mist
1:35 AM 50.0 °F 50.0 °F 100% 30.00 in 4.0 mi West 5.8 mph - 0.05 in   Mist
1:55 AM 50.0 °F 50.0 °F 100% 29.99 in 3.0 mi West 4.6 mph - 0.08 in   Mist
2:15 AM 50.0 °F 50.0 °F 100% 29.99 in 3.0 mi West 4.6 mph - 0.03 in   Mist
2:35 AM 50.0 °F 50.0 °F 100% 29.98 in 2.5 mi West 3.5 mph - 0.08 in   Mist
2:55 AM 50.0 °F 50.0 °F 100% 29.97 in 1.8 mi WSW 4.6 mph - 0.12 in   Mist
3:15 AM 50.0 °F 50.0 °F 100% 29.97 in 2.0 mi WSW 3.5 mph - 0.04 in   Mist
3:35 AM 50.0 °F 50.0 °F 100% 29.96 in 0.8 mi Calm Calm - 0.09 in   Mist
4:15 AM 50.0 °F 50.0 °F 100% 29.95 in 0.2 mi West 3.5 mph - N/A Fog Fog
4:35 AM 50.0 °F 50.0 °F 100% 29.95 in 3.0 mi NW 5.8 mph - 0.01 in   Mist
4:55 AM 50.0 °F 50.0 °F 100% 29.94 in 8.0 mi NW 8.1 mph - 0.01 in   Unknown
5:15 AM 50.0 °F 50.0 °F 100% 29.94 in 10.0 mi Calm Calm - N/A   Unknown
5:35 AM 50.0 °F 50.0 °F 100% 29.93 in 10.0 mi Calm Calm - N/A   Unknown
5:55 AM 50.0 °F 50.0 °F 100% 29.94 in 10.0 mi WNW 4.6 mph - N/A   Unknown
6:15 AM 51.8 °F 50.0 °F 94% 29.92 in 10.0 mi WNW 5.8 mph - N/A   Unknown
6:35 AM 50.0 °F 50.0 °F 100% 29.92 in 10.0 mi WNW 4.6 mph - N/A   Unknown
6:55 AM 50.0 °F 50.0 °F 100% 29.91 in 10.0 mi NW 6.9 mph - N/A   Unknown
7:15 AM 51.8 °F 50.0 °F 94% 29.91 in 10.0 mi NW 4.6 mph - N/A   Unknown
7:35 AM 51.8 °F 51.8 °F 100% 29.90 in 10.0 mi Calm Calm - N/A   Unknown
7:55 AM 51.8 °F 51.8 °F 100% 29.91 in 10.0 mi Calm Calm - N/A   Unknown
8:15 AM 51.8 °F 51.8 °F 100% 29.91 in 10.0 mi Calm Calm - N/A   Unknown
8:35 AM 51.8 °F 51.8 °F 100% 29.92 in 10.0 mi West 3.5 mph - N/A   Unknown
8:55 AM 51.8 °F 51.8 °F 100% 29.93 in 8.0 mi West 6.9 mph - N/A   Unknown
9:15 AM 50.0 °F 50.0 °F 100% 29.93 in 5.0 mi West 3.5 mph - N/A   Mist
9:35 AM 51.8 °F 51.8 °F 100% 29.93 in 4.0 mi NW 4.6 mph - N/A   Mist
9:55 AM 53.6 °F 51.8 °F 94% 29.93 in 5.0 mi NW 5.8 mph - N/A   Mist
10:15 AM 53.6 °F 51.8 °F 94% 29.94 in 4.0 mi WNW 6.9 mph - N/A   Mist
10:35 AM 53.6 °F 51.8 °F 94% 29.93 in 9.0 mi NW 6.9 mph - N/A   Unknown
10:55 AM 53.6 °F 53.6 °F 100% 29.92 in 10.0 mi WNW 4.6 mph - N/A   Unknown
11:15 AM 53.6 °F 51.8 °F 94% 29.91 in 10.0 mi WSW 5.8 mph - N/A   Unknown
11:35 AM 53.6 °F 53.6 °F 100% 29.90 in 10.0 mi WSW 3.5 mph - N/A   Unknown
11:55 AM 53.6 °F 51.8 °F 94% 29.90 in 8.0 mi West 5.8 mph - N/A   Unknown
12:15 PM 53.6 °F 51.8 °F 94% 29.88 in 10.0 mi WNW 4.6 mph - N/A   Unknown
12:35 PM 53.6 °F 51.8 °F 94% 29.88 in 10.0 mi SW 3.5 mph - N/A   Unknown
12:55 PM 53.6 °F 53.6 °F 100% 29.87 in 10.0 mi SW 3.5 mph - N/A   Unknown
1:15 PM 53.6 °F 51.8 °F 94% 29.87 in 10.0 mi Calm Calm - N/A   Unknown
1:35 PM 53.6 °F 51.8 °F 94% 29.87 in 10.0 mi Calm Calm - N/A   Unknown
1:55 PM 55.4 °F 51.8 °F 88% 29.86 in 10.0 mi Calm Calm - N/A   Unknown
2:15 PM 55.4 °F 50.0 °F 82% 29.86 in 10.0 mi Calm Calm - N/A   Unknown
2:35 PM 55.4 °F 50.0 °F 82% 29.86 in 10.0 mi Calm Calm - N/A   Unknown
2:55 PM 55.4 °F 50.0 °F 82% 29.86 in 10.0 mi Calm Calm - N/A   Unknown
3:15 PM 57.2 °F 50.0 °F 77% 29.86 in 10.0 mi Calm Calm - N/A   Unknown
3:35 PM 57.2 °F 50.0 °F 77% 29.86 in 10.0 mi Calm Calm - N/A   Unknown
3:55 PM 57.2 °F 50.0 °F 77% 29.86 in 10.0 mi Calm Calm - N/A   Unknown
4:15 PM 55.4 °F 51.8 °F 88% 29.86 in 10.0 mi East 4.6 mph - N/A   Unknown
4:35 PM 55.4 °F 50.0 °F 82% 29.86 in 10.0 mi East 4.6 mph - N/A   Unknown
4:55 PM 55.4 °F 51.8 °F 88% 29.87 in 10.0 mi East 6.9 mph - N/A   Unknown
5:15 PM 55.4 °F 51.8 °F 88% 29.88 in 10.0 mi East 4.6 mph - N/A   Unknown
5:35 PM 55.4 °F 51.8 °F 88% 29.89 in 10.0 mi ENE 3.5 mph - N/A   Unknown
5:55 PM 55.4 °F 51.8 °F 88% 29.89 in 10.0 mi East 4.6 mph - N/A   Unknown
6:15 PM 55.4 °F 51.8 °F 88% 29.90 in 10.0 mi Calm Calm - N/A   Unknown
6:35 PM 55.4 °F 51.8 °F 88% 29.90 in 10.0 mi East 3.5 mph - N/A   Unknown
6:55 PM 53.6 °F 50.0 °F 88% 29.89 in 10.0 mi ENE 4.6 mph - N/A   Unknown
7:15 PM 53.6 °F 50.0 °F 88% 29.90 in 10.0 mi ENE 4.6 mph - N/A   Unknown
7:35 PM 53.6 °F 51.8 °F 94% 29.90 in 10.0 mi ENE 4.6 mph - N/A   Unknown
7:55 PM 51.8 °F 51.8 °F 100% 29.90 in 10.0 mi NE 5.8 mph - N/A   Unknown
8:15 PM 51.8 °F 51.8 °F 100% 29.90 in 10.0 mi East 4.6 mph - N/A   Unknown
8:35 PM 50.0 °F 50.0 °F 100% 29.90 in 10.0 mi ENE 4.6 mph - N/A   Unknown
8:55 PM 51.8 °F 51.8 °F 100% 29.90 in 10.0 mi NE 3.5 mph - N/A   Unknown
9:15 PM 51.8 °F 51.8 °F 100% 29.90 in 10.0 mi NE 4.6 mph - N/A   Unknown
9:35 PM 53.6 °F 51.8 °F 94% 29.91 in 10.0 mi East 4.6 mph - N/A   Unknown
9:55 PM 51.8 °F 51.8 °F 100% 29.91 in 10.0 mi East 4.6 mph - N/A   Unknown
10:15 PM 51.8 °F 51.8 °F 100% 29.91 in 10.0 mi East 3.5 mph - N/A   Unknown
10:35 PM 51.8 °F 51.8 °F 100% 29.91 in 10.0 mi Calm Calm - N/A   Unknown
10:55 PM 51.8 °F 51.8 °F 100% 29.91 in 10.0 mi East 3.5 mph - N/A   Unknown
11:15 PM 51.8 °F 51.8 °F 100% 29.91 in 10.0 mi East 3.5 mph - N/A   Unknown
11:35 PM 50.0 °F 50.0 °F 100% 29.91 in 10.0 mi Calm Calm - N/A   Unknown
11:55 PM 51.8 °F 51.8 °F 100% 29.91 in 10.0 mi Calm Calm - N/A   Unknown